TimePST,TemperatureF,Dew PointF,Humidity,Sea Level PressureIn,VisibilityMPH,Wind Direction,Wind SpeedMPH,Gust SpeedMPH,PrecipitationIn,Events,Conditions,WindDirDegrees,DateUTC
12:15 AM,42.8,35.6,76,30.39,10.0,Calm,Calm,-,N/A,,Clear,0,2012-11-05 08:15:00
12:35 AM,39.2,32.0,75,30.39,10.0,ESE,4.6,-,N/A,,Clear,120,2012-11-05 08:35:00
12:55 AM,41.0,35.6,81,30.39,10.0,SE,6.9,-,N/A,,Clear,140,2012-11-05 08:55:00
1:15 AM,41.0,35.6,81,30.39,10.0,SE,6.9,-,N/A,,Clear,140,2012-11-05 09:15:00
1:35 AM,44.6,35.6,71,30.40,10.0,SE,4.6,-,N/A,,Clear,130,2012-11-05 09:35:00
1:55 AM,44.6,35.6,71,30.40,10.0,SE,6.9,-,N/A,,Clear,130,2012-11-05 09:55:00
2:15 AM,42.8,35.6,76,30.41,10.0,Calm,Calm,-,N/A,,Clear,0,2012-11-05 10:15:00
2:35 AM,44.6,35.6,71,30.41,10.0,ESE,6.9,-,N/A,,Clear,120,2012-11-05 10:35:00
2:55 AM,44.6,35.6,71,30.40,10.0,SE,5.8,-,N/A,,Clear,130,2012-11-05 10:55:00
3:15 AM,42.8,35.6,76,30.40,10.0,SE,8.1,-,N/A,,Clear,130,2012-11-05 11:15:00
3:35 AM,42.8,35.6,76,30.40,10.0,SSE,8.1,-,N/A,,Clear,160,2012-11-05 11:35:00
3:55 AM,42.8,35.6,76,30.39,10.0,South,4.6,-,N/A,,Clear,170,2012-11-05 11:55:00
4:35 AM,46.4,37.4,71,30.38,10.0,SSW,10.4,-,N/A,,Clear,200,2012-11-05 12:35:00
4:55 AM,46.4,37.4,71,30.38,10.0,South,5.8,-,N/A,,Clear,190,2012-11-05 12:55:00
5:15 AM,44.6,37.4,76,30.38,10.0,SSW,4.6,-,N/A,,Clear,200,2012-11-05 13:15:00
5:35 AM,41.0,32.0,70,30.38,10.0,ESE,6.9,-,N/A,,Clear,120,2012-11-05 13:35:00
5:55 AM,37.4,32.0,81,30.38,10.0,ESE,5.8,-,N/A,,Clear,110,2012-11-05 13:55:00
6:15 AM,39.2,32.0,75,30.38,10.0,SSE,4.6,-,N/A,,Clear,160,2012-11-05 14:15:00
6:35 AM,39.2,32.0,75,30.38,10.0,SE,5.8,-,N/A,,Clear,140,2012-11-05 14:35:00
6:55 AM,39.2,33.8,81,30.38,10.0,SSE,4.6,-,N/A,,Clear,150,2012-11-05 14:55:00
7:35 AM,39.2,33.8,81,30.39,10.0,South,5.8,-,N/A,,Clear,190,2012-11-05 15:35:00
7:55 AM,42.8,35.6,76,30.39,10.0,South,4.6,-,N/A,,Clear,190,2012-11-05 15:55:00
8:15 AM,46.4,37.4,71,30.39,10.0,SSW,5.8,-,N/A,,Clear,210,2012-11-05 16:15:00
8:35 AM,50.0,37.4,62,30.39,10.0,South,3.5,-,N/A,,Clear,180,2012-11-05 16:35:00
8:55 AM,50.0,37.4,62,30.38,10.0,Calm,Calm,-,N/A,,Clear,0,2012-11-05 16:55:00
9:35 AM,51.8,39.2,62,30.37,10.0,Calm,Calm,-,N/A,,Clear,0,2012-11-05 17:35:00
9:55 AM,51.8,39.2,62,30.36,10.0,ESE,3.5,-,N/A,,Clear,120,2012-11-05 17:55:00
10:15 AM,53.6,37.4,54,30.36,10.0,ESE,3.5,-,N/A,,Clear,120,2012-11-05 18:15:00
10:35 AM,55.4,37.4,51,30.36,10.0,Calm,Calm,-,N/A,,Clear,0,2012-11-05 18:35:00
10:55 AM,57.2,39.2,51,30.35,10.0,Calm,Calm,-,N/A,,Clear,0,2012-11-05 18:55:00
11:15 AM,57.2,37.4,48,30.35,10.0,Calm,Calm,-,N/A,,Clear,0,2012-11-05 19:15:00
11:35 AM,59.0,37.4,45,30.34,10.0,ESE,3.5,-,N/A,,Clear,110,2012-11-05 19:35:00
11:55 AM,60.8,35.6,39,30.33,10.0,Calm,Calm,-,N/A,,Clear,0,2012-11-05 19:55:00
12:35 PM,64.4,35.6,34,30.32,10.0,Calm,Calm,-,N/A,,Clear,0,2012-11-05 20:35:00
12:55 PM,66.2,33.8,30,30.31,10.0,Calm,Calm,-,N/A,,Clear,0,2012-11-05 20:55:00
1:15 PM,66.2,33.8,30,30.31,10.0,Calm,Calm,-,N/A,,Clear,0,2012-11-05 21:15:00
1:35 PM,66.2,33.8,30,30.30,10.0,Calm,Calm,-,N/A,,Clear,0,2012-11-05 21:35:00
1:55 PM,66.2,33.8,30,30.30,10.0,Calm,Calm,-,N/A,,Clear,0,2012-11-05 21:55:00
2:15 PM,66.2,33.8,30,30.30,10.0,Calm,Calm,-,N/A,,Clear,0,2012-11-05 22:15:00
2:35 PM,66.2,32.0,28,30.30,10.0,Calm,Calm,-,N/A,,Clear,0,2012-11-05 22:35:00
2:55 PM,66.2,32.0,28,30.30,10.0,Calm,Calm,-,N/A,,Clear,0,2012-11-05 22:55:00
3:15 PM,68.0,32.0,26,30.30,10.0,Calm,Calm,-,N/A,,Clear,0,2012-11-05 23:15:00
3:35 PM,68.0,32.0,26,30.29,10.0,Calm,Calm,-,N/A,,Clear,0,2012-11-05 23:35:00
3:55 PM,68.0,32.0,26,30.29,10.0,Calm,Calm,-,N/A,,Clear,0,2012-11-05 23:55:00
4:15 PM,68.0,32.0,26,30.28,10.0,Calm,Calm,-,N/A,,Clear,0,2012-11-06 00:15:00
4:35 PM,66.2,33.8,30,30.28,10.0,Calm,Calm,-,N/A,,Clear,0,2012-11-06 00:35:00
4:55 PM,62.6,33.8,34,30.27,10.0,Calm,Calm,-,N/A,,Clear,0,2012-11-06 00:55:00
5:15 PM,59.0,35.6,42,30.27,10.0,Calm,Calm,-,N/A,,Clear,0,2012-11-06 01:15:00
5:35 PM,55.4,35.6,47,30.28,10.0,Calm,Calm,-,N/A,,Clear,0,2012-11-06 01:35:00
5:55 PM,53.6,35.6,51,30.28,10.0,Calm,Calm,-,N/A,,Clear,0,2012-11-06 01:55:00
6:15 PM,51.8,35.6,54,30.28,10.0,Calm,Calm,-,N/A,,Clear,0,2012-11-06 02:15:00
6:35 PM,53.6,35.6,51,30.28,10.0,South,5.8,-,N/A,,Clear,190,2012-11-06 02:35:00
6:55 PM,50.0,35.6,58,30.28,10.0,South,4.6,-,N/A,,Clear,190,2012-11-06 02:55:00
7:15 PM,48.2,35.6,62,30.28,10.0,Calm,Calm,-,N/A,,Clear,0,2012-11-06 03:15:00
7:35 PM,48.2,35.6,62,30.28,10.0,SE,6.9,-,N/A,,Clear,140,2012-11-06 03:35:00
7:55 PM,50.0,33.8,54,30.27,10.0,SSE,6.9,-,N/A,,Clear,150,2012-11-06 03:55:00
8:15 PM,50.0,33.8,54,30.27,10.0,South,8.1,-,N/A,,Clear,180,2012-11-06 04:15:00
8:35 PM,50.0,35.6,58,30.27,10.0,SSW,6.9,-,N/A,,Clear,200,2012-11-06 04:35:00
8:55 PM,48.2,33.8,58,30.27,10.0,South,5.8,-,N/A,,Clear,190,2012-11-06 04:55:00
9:15 PM,53.6,35.6,51,30.26,10.0,SSW,6.9,-,N/A,,Clear,210,2012-11-06 05:15:00
9:35 PM,51.8,35.6,54,30.26,10.0,SSW,6.9,-,N/A,,Clear,200,2012-11-06 05:35:00
9:55 PM,50.0,33.8,54,30.26,10.0,South,4.6,-,N/A,,Clear,180,2012-11-06 05:55:00
10:15 PM,48.2,32.0,54,30.26,10.0,SE,5.8,-,N/A,,Clear,140,2012-11-06 06:15:00
10:35 PM,46.4,32.0,57,30.25,10.0,SE,8.1,-,N/A,,Clear,130,2012-11-06 06:35:00
10:55 PM,44.6,32.0,61,30.25,10.0,SE,4.6,-,N/A,,Clear,140,2012-11-06 06:55:00
11:15 PM,42.8,32.0,66,30.24,10.0,SE,4.6,-,N/A,,Clear,140,2012-11-06 07:15:00
11:35 PM,41.0,32.0,70,30.24,10.0,SE,5.8,-,N/A,,Clear,140,2012-11-06 07:35:00
11:55 PM,41.0,32.0,70,30.24,10.0,SE,5.8,-,N/A,,Clear,140,2012-11-06 07:55:00